STARLINK-4415, 53465

Orbit data source: Space-Track

STARLINK-4415, 53465 is a payload satellite owned by SpaceX/Seattle (US) in SSO that was launched on Fri, 12 Aug 2022 UTC via an FALCON 9 launch vehicle from the Air Force Western Test Range (AFWTR). Payload-class satellites include a variety of spacecraft equipped with specific instruments for various scientific and technological missions. These include communications satellites like Starlink; space stations such as the ISS; scientific satellites like the Hubble; Earth observation satellites from companies like Planet Labs, Umbra, and HawkEye 360; GPS; miniature CubeSats for education and research; and military/defense satellites.

Loading next visibility...
Identifier
53465, 2022-099A
Orbit
SSO
Country
Flag of USUS
Related business
Manufacturer
SpaceX/Seattle
Mission
Operational Commercial Communications
Bus & Motor
STARLINK, Unknown motor
Mass
300 kg wet, ~275 kg dry
Launch date (UTC)
2022-08-12 (3 years ago)
Launch vehicle
FALCON 9
Launch site
Air Force Western Test Range (AFWTR)
Object type
Payload
Rocket body
Debris
Shape & HBR
Box + 1 Pan, 4.4 m
Radar Cross Section
13.562 m², Large (>1 m²)

Expand to show TLE details & history
Last TLE update: 13 hours ago

TLE from 13 hours ago
0 STARLINK-4415
1 53465U 22099A   25259.09732946  .00192776  00000-0  14076-1 0  9999
2 53465  97.6098  19.2834 0010696  41.5537 318.6500 15.02640824169773
Epoch: 2025-09-16T02:20Z
TLE epoch observation values (Epoch: 2025-09-16T02:20:09.265Z)
Latitude
0.00006°
Longitude
-11.04773°
Altitude
556.25 km
Speed
7.587 km/s
True Right ascension
01h 17m 08s
True Declination
0° 00' 00"
Sunlit
Object was in full shadow at epoch
Visualization orbit readout
Latitude
Unknown
Longitude
Unknown
Altitude
Unknown
Speed
Unknown
Apparent Right ascension
Unknown
Apparent Declination
Unknown
Sunlit
N/A
Visualization observer readout
Local Sidereal Time
08:13:15
Azimuth
Unknown
Elevation
Unknown
Doppler factor
Unknown
Orbital elements
Apogee altitude
563.171 km
Perigee altitude
548.338 km
Semi-major axis
6,933.892 km
Eccentricity
0.00107
Inclination
97.6098°
RAAN
19.2834°
Arg. of periapsis
41.5537°
True anomaly
318.56894°
Mean anomaly
318.65°
Eccentric anomaly
318.60948°
Mean motion
3.75905 °/min
Orbital period
95.77 mins
BSTAR
0.014076
Loading maneuver chart data...
Computing Atmospheric mass density...
Loading historical data...
Loading historical data...
Loading historical data...
Loading historical data...
Loading historical data...
Loading historical data...
Loading historical data...

Documentation

Showing up to 5 results
|